| time (UTC) | temp F | wind direction | speed knots | gust knots | rain 1hr in | rain 24hr in | rain mn in | humidity % | barometer mb |
| 20260507051117 | 65 | 308 | 0.0 | 1.7 | 0.00 | 0.00 | 0.00 | 55 | 1010.8 |
| 20260507050214 | 64 | 320 | 0.9 | 1.7 | 0.00 | 0.00 | 0.00 | 56 | 1010.8 |
| 20260507045403 | 63 | 323 | 0.9 | 3.5 | 0.00 | 0.00 | 0.00 | 57 | 1010.8 |
| 20260507044503 | 62 | 319 | 0.0 | 1.7 | 0.00 | 0.00 | 0.00 | 57 | 1010.8 |
| 20260507043604 | 62 | 315 | 0.9 | 1.7 | 0.00 | 0.00 | 0.00 | 58 | 1010.8 |
| 20260507042704 | 61 | 315 | 0.0 | 1.7 | 0.00 | 0.00 | 0.00 | 60 | 1010.7 |
| 20260507041803 | 61 | 315 | 0.0 | 1.7 | 0.00 | 0.00 | 0.00 | 60 | 1010.7 |
| 20260507040903 | 60 | 318 | 0.0 | 1.7 | 0.00 | 0.00 | 0.00 | 61 | 1010.8 |
| 20260507040215 | 60 | 321 | 0.9 | 1.7 | 0.00 | 0.00 | 0.00 | 61 | 1010.8 |
| 20260507035616 | 60 | 327 | 0.0 | 1.7 | 0.00 | 0.00 | 0.00 | 61 | 1010.8 |
| 20260507034503 | 60 | 315 | 0.0 | 1.7 | 0.00 | 0.00 | 0.00 | 61 | 1011.0 |
| 20260507033604 | 60 | 315 | 0.9 | 1.7 | 0.00 | 0.00 | 0.00 | 60 | 1010.7 |
| 20260507032913 | 60 | 315 | 0.0 | 1.7 | 0.00 | 0.00 | 0.00 | 60 | 1010.6 |
| 20260507032016 | 60 | 315 | 0.0 | 1.7 | 0.00 | 0.00 | 0.00 | 60 | 1010.7 |
| 20260507031113 | 60 | 325 | 0.9 | 1.7 | 0.00 | 0.00 | 0.00 | 60 | 1010.9 |
| 20260507030004 | 60 | 337 | 0.0 | 1.7 | 0.00 | 0.00 | 0.00 | 61 | 1010.5 |
| 20260507025617 | 60 | 337 | 0.0 | 1.7 | 0.00 | 0.00 | 0.00 | 60 | 1010.6 |
| 20260507024503 | 60 | 337 | 0.0 | 1.7 | 0.00 | 0.00 | 0.00 | 60 | 1010.7 |
| 20260507023604 | 60 | 337 | 0.0 | 1.7 | 0.00 | 0.00 | 0.00 | 60 | 1010.4 |
| 20260507022914 | 60 | 0 | 0.0 | 0.0 | 0.00 | 0.00 | 0.00 | 60 | 1010.7 |
| 20260507022016 | 60 | 337 | 0.0 | 1.7 | 0.00 | 0.00 | 0.00 | 59 | 1010.5 |
| 20260507020903 | 60 | 0 | 0.0 | 0.0 | 0.00 | 0.00 | 0.00 | 59 | 1010.6 |
| 20260507020004 | 60 | 337 | 0.0 | 1.7 | 0.00 | 0.00 | 0.00 | 59 | 1010.2 |
| 20260507015618 | 60 | 337 | 0.0 | 1.7 | 0.00 | 0.00 | 0.00 | 59 | 1010.3 |
| 20260507014715 | 61 | 332 | 0.0 | 1.7 | 0.00 | 0.00 | 0.00 | 58 | 1010.2 |
| 20260507013817 | 61 | 315 | 0.9 | 1.7 | 0.00 | 0.00 | 0.00 | 57 | 1010.3 |
| 20260507012704 | 61 | 315 | 0.0 | 1.7 | 0.00 | 0.00 | 0.00 | 57 | 1010.0 |
| 20260507011803 | 61 | 315 | 0.0 | 1.7 | 0.00 | 0.00 | 0.00 | 57 | 1010.1 |
| 20260507010004 | 62 | 315 | 0.0 | 1.7 | 0.00 | 0.00 | 0.00 | 56 | 1009.8 |
| 20260507005403 | 62 | 315 | 0.0 | 1.7 | 0.00 | 0.00 | 0.00 | 56 | 1009.8 |
| 20260507004503 | 62 | 315 | 0.0 | 1.7 | 0.00 | 0.00 | 0.00 | 55 | 1009.9 |
| 20260507003818 | 62 | 310 | 0.9 | 3.5 | 0.00 | 0.00 | 0.00 | 55 | 1009.6 |
| 20260507002915 | 63 | 292 | 0.9 | 5.2 | 0.00 | 0.00 | 0.00 | 55 | 1009.7 |
| 20260507002018 | 62 | 292 | 0.9 | 5.2 | 0.00 | 0.00 | 0.00 | 55 | 1009.8 |
| 20260507000903 | 62 | 292 | 0.0 | 1.7 | 0.00 | 0.00 | 0.00 | 56 | 1009.9 |
| 20260507000004 | 62 | 292 | 0.0 | 1.7 | 0.00 | 0.00 | 0.00 | 57 | 1010.0 |
| 20260506235403 | 62 | 292 | 0.0 | 1.7 | 0.00 | 0.00 | 0.00 | 57 | 1009.6 |
| 20260506234716 | 62 | 0 | 0.0 | 0.0 | 0.00 | 0.00 | 0.00 | 56 | 1009.9 |
| 20260506233604 | 63 | 292 | 0.0 | 1.7 | 0.00 | 0.00 | 0.00 | 55 | 1010.3 |
| 20260506232916 | 63 | 0 | 0.0 | 0.0 | 0.00 | 0.00 | 0.00 | 56 | 1010.3 |
| 20260506231803 | 63 | 292 | 0.0 | 1.7 | 0.00 | 0.00 | 0.00 | 55 | 1010.5 |
| 20260506230903 | 63 | 292 | 0.0 | 1.7 | 0.00 | 0.00 | 0.00 | 55 | 1010.5 |
| 20260506230213 | 63 | 292 | 0.0 | 1.7 | 0.00 | 0.00 | 0.00 | 55 | 1010.2 |
| 20260506225614 | 64 | 292 | 0.0 | 1.7 | 0.00 | 0.00 | 0.00 | 54 | 1010.5 |
| 20260506224717 | 64 | 292 | 0.0 | 1.7 | 0.00 | 0.00 | 0.00 | 54 | 1010.6 |
| 20260506223814 | 64 | 292 | 0.9 | 1.7 | 0.00 | 0.00 | 0.00 | 54 | 1010.7 |
| 20260506222704 | 65 | 0 | 0.0 | 0.0 | 0.00 | 0.00 | 0.00 | 54 | 1010.4 |
| 20260506222014 | 65 | 292 | 0.0 | 1.7 | 0.00 | 0.00 | 0.00 | 53 | 1010.5 |
| 20260506221116 | 66 | 292 | 0.9 | 1.7 | 0.00 | 0.00 | 0.00 | 52 | 1010.6 |
| 20260506220213 | 66 | 292 | 0.9 | 1.7 | 0.00 | 0.00 | 0.00 | 54 | 1010.5 |
| 20260506215403 | 66 | 0 | 0.0 | 0.0 | 0.00 | 0.00 | 0.00 | 54 | 1010.7 |
| 20260506214504 | 66 | 0 | 0.0 | 0.0 | 0.00 | 0.00 | 0.00 | 53 | 1010.7 |
| 20260506213604 | 66 | 0 | 0.0 | 0.0 | 0.00 | 0.00 | 0.00 | 52 | 1010.8 |
| 20260506212703 | 66 | 292 | 0.0 | 1.7 | 0.00 | 0.00 | 0.00 | 52 | 1010.8 |
| 20260506211803 | 67 | 292 | 0.0 | 1.7 | 0.00 | 0.00 | 0.00 | 51 | 1010.7 |
| 20260506211117 | 66 | 292 | 0.0 | 1.7 | 0.00 | 0.00 | 0.00 | 51 | 1010.8 |
| 20260506210219 | 66 | 0 | 0.0 | 0.0 | 0.00 | 0.00 | 0.00 | 51 | 1010.8 |
| 20260506205403 | 66 | 292 | 0.0 | 1.7 | 0.00 | 0.00 | 0.00 | 50 | 1011.0 |
| 20260506204504 | 67 | 292 | 0.0 | 1.7 | 0.00 | 0.00 | 0.00 | 50 | 1011.0 |
| 20260506203604 | 67 | 286 | 0.9 | 3.5 | 0.00 | 0.00 | 0.00 | 49 | 1010.9 |
| 20260506202918 | 67 | 285 | 1.7 | 3.5 | 0.00 | 0.00 | 0.00 | 49 | 1011.1 |
| 20260506201804 | 67 | 262 | 1.7 | 3.5 | 0.00 | 0.00 | 0.00 | 48 | 1010.9 |
| 20260506200903 | 68 | 264 | 1.7 | 3.5 | 0.00 | 0.00 | 0.00 | 47 | 1011.0 |
| 20260506200004 | 68 | 282 | 1.7 | 3.5 | 0.00 | 0.00 | 0.00 | 45 | 1011.0 |
| 20260506195616 | 68 | 283 | 2.6 | 3.5 | 0.00 | 0.00 | 0.00 | 45 | 1010.7 |
| 20260506194504 | 69 | 270 | 3.5 | 5.2 | 0.00 | 0.00 | 0.00 | 43 | 1010.6 |
| 20260506193603 | 69 | 267 | 1.7 | 3.5 | 0.00 | 0.00 | 0.00 | 42 | 1010.5 |
| 20260506192703 | 69 | 277 | 2.6 | 3.5 | 0.00 | 0.00 | 0.00 | 42 | 1010.5 |
| 20260506191803 | 70 | 283 | 2.6 | 3.5 | 0.00 | 0.00 | 0.00 | 42 | 1010.5 |
| 20260506191113 | 70 | 272 | 2.6 | 3.5 | 0.00 | 0.00 | 0.00 | 42 | 1010.2 |
| 20260506190004 | 70 | 292 | 1.7 | 3.5 | 0.00 | 0.00 | 0.00 | 42 | 1010.2 |
| 20260506185617 | 70 | 292 | 1.7 | 3.5 | 0.00 | 0.00 | 0.00 | 42 | 1010.1 |
| 20260506184714 | 70 | 292 | 1.7 | 3.5 | 0.00 | 0.00 | 0.00 | 42 | 1010.2 |
| 20260506183604 | 70 | 292 | 1.7 | 3.5 | 0.00 | 0.00 | 0.00 | 42 | 1009.9 |
| 20260506182703 | 70 | 290 | 2.6 | 3.5 | 0.00 | 0.00 | 0.00 | 42 | 1009.8 |
| 20260506182016 | 70 | 280 | 1.7 | 3.5 | 0.00 | 0.00 | 0.00 | 42 | 1009.8 |
| 20260506181114 | 70 | 274 | 1.7 | 3.5 | 0.00 | 0.00 | 0.00 | 41 | 1009.8 |
| 20260506180216 | 70 | 275 | 1.7 | 5.2 | 0.00 | 0.00 | 0.00 | 42 | 1009.8 |
| 20260506175403 | 70 | 268 | 3.5 | 3.5 | 0.00 | 0.00 | 0.00 | 42 | 1009.5 |
| 20260506174504 | 70 | 258 | 1.7 | 5.2 | 0.00 | 0.00 | 0.00 | 42 | 1009.7 |
| 20260506173603 | 70 | 269 | 1.7 | 3.5 | 0.00 | 0.00 | 0.00 | 42 | 1009.6 |
| 20260506172915 | 70 | 272 | 1.7 | 5.2 | 0.00 | 0.00 | 0.00 | 43 | 1009.7 |
| 20260506171803 | 71 | 261 | 2.6 | 3.5 | 0.00 | 0.00 | 0.00 | 42 | 1009.2 |
| 20260506171114 | 71 | 255 | 3.5 | 5.2 | 0.00 | 0.00 | 0.00 | 42 | 1009.4 |
| 20260506170004 | 71 | 266 | 3.5 | 6.1 | 0.00 | 0.00 | 0.00 | 42 | 1009.5 |
| 20260506165613 | 71 | 250 | 4.3 | 6.1 | 0.00 | 0.00 | 0.00 | 41 | 1009.3 |
| 20260506164504 | 72 | 264 | 2.6 | 6.1 | 0.00 | 0.00 | 0.00 | 41 | 1009.7 |
| 20260506163813 | 73 | 260 | 1.7 | 7.0 | 0.00 | 0.00 | 0.00 | 39 | 1009.3 |
| 20260506162703 | 73 | 269 | 1.7 | 7.0 | 0.00 | 0.00 | 0.00 | 40 | 1009.5 |
| 20260506162018 | 73 | 272 | 3.5 | 7.0 | 0.00 | 0.00 | 0.00 | 38 | 1009.3 |
| 20260506160903 | 74 | 254 | 3.5 | 7.8 | 0.00 | 0.00 | 0.00 | 37 | 1009.4 |
| 20260506160003 | 75 | 240 | 1.7 | 7.8 | 0.00 | 0.00 | 0.00 | 35 | 1009.2 |
| 20260506155403 | 76 | 232 | 1.7 | 7.0 | 0.00 | 0.00 | 0.00 | 34 | 1009.3 |
| 20260506154716 | 75 | 227 | 2.6 | 7.8 | 0.00 | 0.00 | 0.00 | 35 | 1009.2 |
| 20260506153813 | 75 | 230 | 1.7 | 7.8 | 0.00 | 0.00 | 0.00 | 34 | 1009.3 |
| 20260506152703 | 75 | 251 | 1.7 | 9.6 | 0.00 | 0.00 | 0.00 | 34 | 1009.6 |
| 20260506151803 | 75 | 210 | 1.7 | 7.0 | 0.00 | 0.00 | 0.00 | 34 | 1009.5 |
| 20260506151115 | 76 | 139 | 2.6 | 7.8 | 0.00 | 0.00 | 0.00 | 34 | 1009.7 |
| 20260506150213 | 76 | 247 | 3.5 | 7.8 | 0.00 | 0.00 | 0.00 | 35 | 1009.6 |
| 20260506145403 | 76 | 253 | 1.7 | 9.6 | 0.00 | 0.00 | 0.00 | 34 | 1009.7 |
| 20260506144504 | 76 | 217 | 4.3 | 7.8 | 0.00 | 0.00 | 0.00 | 35 | 1009.6 |
| 20260506143814 | 76 | 213 | 3.5 | 7.8 | 0.00 | 0.00 | 0.00 | 35 | 1009.7 |
| 20260506142703 | 75 | 217 | 3.5 | 11.3 | 0.00 | 0.00 | 0.00 | 36 | 1009.5 |
| 20260506142014 | 75 | 215 | 7.0 | 11.3 | 0.00 | 0.00 | 0.00 | 38 | 1009.6 |
| 20260506141116 | 76 | 262 | 1.7 | 7.8 | 0.00 | 0.00 | 0.00 | 38 | 1009.6 |
| 20260506140213 | 76 | 205 | 1.7 | 9.6 | 0.00 | 0.00 | 0.00 | 38 | 1009.8 |
| 20260506135403 | 74 | 251 | 2.6 | 9.6 | 0.00 | 0.00 | 0.00 | 41 | 1009.9 |
| 20260506134504 | 74 | 215 | 2.6 | 7.8 | 0.00 | 0.00 | 0.00 | 43 | 1009.9 |
| 20260506133815 | 74 | 251 | 3.5 | 11.3 | 0.00 | 0.00 | 0.00 | 44 | 1010.0 |
| 20260506132703 | 75 | 237 | 4.3 | 7.8 | 0.00 | 0.00 | 0.00 | 44 | 1009.8 |
| 20260506131804 | 75 | 235 | 2.6 | 9.6 | 0.00 | 0.00 | 0.00 | 43 | 1009.8 |
| 20260506131117 | 75 | 232 | 3.5 | 7.8 | 0.00 | 0.00 | 0.00 | 44 | 1009.9 |
| 20260506130214 | 75 | 186 | 2.6 | 9.6 | 0.00 | 0.00 | 0.00 | 42 | 1009.9 |
| 20260506125403 | 75 | 213 | 3.5 | 9.6 | 0.00 | 0.00 | 0.00 | 40 | 1009.6 |
| 20260506124504 | 77 | 122 | 2.6 | 9.6 | 0.00 | 0.00 | 0.00 | 39 | 1009.8 |
| 20260506123815 | 77 | 237 | 2.6 | 9.6 | 0.00 | 0.00 | 0.00 | 38 | 1009.7 |
| 20260506122918 | 76 | 221 | 3.5 | 9.6 | 0.00 | 0.00 | 0.00 | 41 | 1009.8 |
| 20260506122015 | 75 | 239 | 3.5 | 9.6 | 0.00 | 0.00 | 0.00 | 42 | 1010.0 |
| 20260506120903 | 75 | 243 | 2.6 | 9.6 | 0.00 | 0.00 | 0.00 | 43 | 1010.0 |
| 20260506120004 | 74 | 217 | 3.5 | 9.6 | 0.00 | 0.00 | 0.00 | 44 | 1010.2 |
| 20260506115403 | 74 | 211 | 3.5 | 9.6 | 0.00 | 0.00 | 0.00 | 43 | 1010.2 |
| 20260506114714 | 74 | 186 | 3.5 | 7.8 | 0.00 | 0.00 | 0.00 | 43 | 1009.9 |
| 20260506113816 | 74 | 105 | 3.5 | 7.8 | 0.00 | 0.00 | 0.00 | 44 | 1010.1 |
| 20260506112913 | 74 | 133 | 1.7 | 9.6 | 0.00 | 0.00 | 0.00 | 49 | 1010.4 |
| 20260506111803 | 74 | 210 | 3.5 | 9.6 | 0.00 | 0.00 | 0.00 | 46 | 1010.2 |
| 20260506111113 | 75 | 126 | 3.5 | 9.6 | 0.00 | 0.00 | 0.00 | 42 | 1010.0 |
| 20260506110215 | 75 | 110 | 3.5 | 9.6 | 0.00 | 0.00 | 0.00 | 39 | 1010.1 |
| 20260506105404 | 76 | 98 | 4.3 | 7.8 | 0.00 | 0.00 | 0.00 | 38 | 1010.0 |
| 20260506104504 | 77 | 224 | 3.5 | 7.8 | 0.00 | 0.00 | 0.00 | 37 | 1010.1 |
| 20260506103817 | 76 | 224 | 3.5 | 9.6 | 0.00 | 0.00 | 0.00 | 39 | 1010.2 |
| 20260506102914 | 76 | 121 | 3.5 | 7.0 | 0.00 | 0.00 | 0.00 | 38 | 1010.2 |
| 20260506101803 | 77 | 117 | 2.6 | 7.0 | 0.00 | 0.00 | 0.00 | 37 | 1010.2 |
| 20260506100903 | 76 | 113 | 3.5 | 7.0 | 0.00 | 0.00 | 0.00 | 38 | 1010.3 |
| 20260506100004 | 76 | 153 | 1.7 | 7.8 | 0.00 | 0.00 | 0.00 | 39 | 1010.3 |
| 20260506095618 | 76 | 156 | 1.7 | 7.8 | 0.00 | 0.00 | 0.00 | 39 | 1010.3 |
| 20260506094715 | 75 | 224 | 1.7 | 7.8 | 0.00 | 0.00 | 0.00 | 42 | 1010.3 |
| 20260506093603 | 76 | 110 | 1.7 | 7.0 | 0.00 | 0.00 | 0.00 | 42 | 1010.6 |
| 20260506092915 | 76 | 225 | 1.7 | 5.2 | 0.00 | 0.00 | 0.00 | 42 | 1010.6 |
| 20260506091803 | 76 | 105 | 1.7 | 6.1 | 0.00 | 0.00 | 0.00 | 43 | 1010.4 |
| 20260506091114 | 76 | 107 | 2.6 | 7.0 | 0.00 | 0.00 | 0.00 | 41 | 1010.3 |
| 20260506090217 | 76 | 142 | 1.7 | 7.0 | 0.00 | 0.00 | 0.00 | 42 | 1010.3 |
| 20260506085613 | 76 | 105 | 3.5 | 6.1 | 0.00 | 0.00 | 0.00 | 42 | 1010.2 |
| 20260506084504 | 76 | 234 | 1.7 | 5.2 | 0.00 | 0.00 | 0.00 | 41 | 1010.2 |
| 20260506083813 | 75 | 101 | 1.7 | 3.5 | 0.00 | 0.00 | 0.00 | 41 | 1010.2 |
| 20260506082916 | 76 | 104 | 1.7 | 6.1 | 0.00 | 0.00 | 0.00 | 38 | 1010.4 |
| 20260506081803 | 76 | 94 | 2.6 | 6.1 | 0.00 | 0.00 | 0.00 | 38 | 1010.2 |
| 20260506080903 | 76 | 98 | 2.6 | 5.2 | 0.00 | 0.00 | 0.00 | 38 | 1010.4 |
| 20260506080217 | 75 | 72 | 1.7 | 7.0 | 0.00 | 0.00 | 0.00 | 39 | 1010.2 |
| 20260506072703 | 75 | 239 | 0.0 | 3.5 | 0.00 | 0.00 | 0.00 | 40 | 1009.9 |
| 20260506071803 | 74 | 203 | 1.7 | 3.5 | 0.00 | 0.00 | 0.00 | 40 | 1010.0 |
| 20260506071115 | 74 | 234 | 0.9 | 3.5 | 0.00 | 0.00 | 0.00 | 41 | 1009.9 |
| 20260506070218 | 72 | 249 | 1.7 | 3.5 | 0.00 | 0.00 | 0.00 | 42 | 1009.9 |
| 20260506062014 | 68 | 252 | 1.7 | 3.5 | 0.00 | 0.00 | 0.00 | 50 | 1010.0 |
| 20260506060904 | 68 | 225 | 0.9 | 1.7 | 0.00 | 0.00 | 0.00 | 49 | 1010.2 |